Location: Carson
(33.8314°N, 118.2820°W)
Time: 13:52:20
(UTC+00:00)

CZ-4B R/B - Pass Details

Date: 23 November 2020
Orbit: 389 x 457 km, 97.6° (Epoch: 21 January)

Event Time Altitude Azimuth Distance (km) Brightness Sun altitude
Rises 12:53:40 0° 170° (S) 2,370 5.3 -20.5°
Reaches altitude 10° 12:55:41 10° 172° (S) 1,497 4.3 -20.1°
Enters shadow 12:58:45 74° 231° (SW) 433 1.1 -19.5°
